www.pogodaiklimat.ru
ПОГОДА в Котсвилле
Время
и дата
22:35 30.11
22:55 30.11
23:15 30.11
23:35 30.11
23:55 30.11
00:15 01.12
00:35 01.12
00:55 01.12
01:15 01.12
01:35 01.12
01:55 01.12
02:15 01.12
02:35 01.12
02:55 01.12
03:15 01.12
03:35 01.12
03:55 01.12
04:15 01.12
04:35 01.12
04:55 01.12
05:15 01.12
05:35 01.12
05:55 01.12
06:15 01.12
06:35 01.12
06:55 01.12
07:15 01.12
07:35 01.12
07:55 01.12
08:15 01.12
08:35 01.12
08:55 01.12
09:15 01.12
09:35 01.12
10:00 01.12
10:15 01.12
10:35 01.12
10:55 01.12
11:15 01.12
11:35 01.12
11:55 01.12
12:15 01.12
12:35 01.12
12:55 01.12
13:15 01.12
13:35 01.12
13:55 01.12
14:15 01.12
Ветер
(напр.,м/с)
Видим. Явления Облачность Т
(С)
Тd
(С)
f
(%)
Тe
(С)
Тes
(С)
Комфортность P
(гПа)
Po
(гПа)
Тmin
(С)
Tmax
(С)
R
(мм)
R24
(мм)
S
(см)
З 9
{12}
16 км ясно +3.0 -6.0 52 -3 -3 990.8
З 8 16 км ясно +2.0 -5.0 60 -4 -4 991.2
СЗ 7
{10}
16 км ясно +2.0 -6.0 55 -4 -4 991.5
СЗ 7
{9}
16 км ясно +2.0 -6.0 55 -4 -4 991.8
СЗ 5
{8}
16 км ясно +1.0 -6.0 60 -4 -4 992.1
СЗ 4
{7}
16 км ясно +1.0 -7.0 55 -4 -4 992.1
СЗ 6 16 км ясно +1.0 -6.0 60 -5 -5 992.1
З 5 16 км ясно 0.0 -6.0 64 -6 -6 992.5
З 4 16 км ясно 0.0 -6.0 64 -5 -5 992.5
З 4 16 км ясно 0.0 -6.0 64 -5 -5 992.8
З 5 16 км ясно 0.0 -6.0 64 -6 -6 993.5
З 3 16 км ясно 0.0 -7.0 59 -4 -4 993.5
З 6 16 км ясно +1.0 -7.0 55 -5 -5 993.8
З 5 16 км 2/2 1650 м +1.0 -7.0 55 -4 -4 994.1
З 6 16 км ясно +1.0 -7.0 55 -5 -5 994.5
З 6 16 км 2/2 1650 м +1.0 -7.0 55 -5 -5 994.5
З 5 16 км 5/5 1500 м +1.0 -6.0 60 -4 -4 995.4
З 8 16 км 8/8 1410 м +1.0 -6.0 60 -6 -6 996.1
СЗ 6
{10}
16 км 8/8 1410 м +1.0 -7.0 55 -5 -5 996.1
СЗ 8 16 км 2/2 1440 м +1.0 -8.0 51 -6 -6 996.4
СЗ 9
{12}
16 км ясно +1.0 -8.0 51 -6 -6 996.8
СЗ 8 16 км ясно 0.0 -8.0 55 -7 -7 997.4
СЗ 9 16 км ясно 0.0 -8.0 55 -7 -7 997.8
СЗ 8
{11}
16 км ясно 0.0 -8.0 55 -7 -7 998.1
СЗ 7
{12}
16 км ясно 0.0 -9.0 51 -6 -6 998.4
СЗ 9
{12}
16 км ясно 0.0 -8.0 55 -7 -7 999.1
СЗ 8
{13}
16 км ясно 0.0 -8.0 55 -7 -7 999.7
СЗ 6
{11}
16 км ясно 0.0 -8.0 55 -6 -6 1000.1
СЗ 8
{12}
16 км ясно 0.0 -9.0 51 -7 -7 1000.1
З 8
{11}
16 км ясно 0.0 -9.0 51 -7 -7 1000.4
З 9
{12}
16 км ясно +1.0 -8.0 51 -6 -6 1001.1
З 9
{12}
н/о 2/2 1410 м +1.0 -8.0 51 -6 -6 1001.7
СЗ 10
{14}
16 км 5/5 1410 м +1.0 -8.0 51 -6 -6 1002.1
СЗ 10
{13}
16 км ясно +2.0 -8.0 47 -5 -5 1002.4
СЗ 9
{13}
16 км ясно +2.0 -8.0 47 -4 -4 1002.7
СЗ 9
{13}
16 км ясно +2.0 -8.0 47 -4 -4 1002.7
З 9
{12}
16 км 2/2 1350 м +3.0 -7.0 48 -3 -3 1003.1
СЗ 7
{13}
16 км 2/2 1350 м +2.0 -8.0 47 -4 -3 1003.1
СЗ 10 14 км 5/5 1380 м +3.0 -8.0 44 -3 -3 1003.1
З 8
{13}
16 км 2/2 1380 м +4.0 -7.0 45 -1 -1 1003.1
З 9 16 км 2/2 1380 м +4.0 -7.0 45 -2 -1 1003.1
СЗ 9
{14}
16 км ясно +4.0 -7.0 45 -2 -1 1003.1
СЗ 8 16 км ясно +4.0 -7.0 45 -1 -1 1003.4
З 9
{13}
16 км ясно +4.0 -7.0 45 -2 -1 1003.4
З 8
{12}
16 км ясно +4.0 -7.0 45 -1 -1 1003.4
З 9 16 км ясно +5.0 -7.0 42 0 0 1003.7
СЗ 9 16 км ясно +4.0 -7.0 45 -2 -1 1004.0
СЗ 8
{11}
16 км ясно +4.0 -7.0 45 -1 -1 1004.0
Местоположение метеостанции Chester County G O Carlson Airport: широта 39.9800 долгота -75.8700 высота над уровнем моря 201 м.
В архиве по умолчанию представлена погода в Котсвилле за последние 1-2 суток. Обновление информации о фактической погоде в базе происходит ежечасно! Архивные данные за месяц целиком и за предыдущие месяцы Вы можете получить, выбрав интересующий диапазон дат из раскрывающегося списка и нажав кнопку "Ввод!".
Внимание! Архив погоды МЕТАР в базе сайта по станциям, не включенным в климатический монитор, хранится не более 60 дней. Нет смысла пытаться выбрать более раннюю дату.
*Определитесь, кто Вы:
Внимание! Время в таблицах - местное (без учета летнего времени). Для получения всемирного времени необходимо вычесть поправку, которая равна -5 ч.
Смотрите также архив погоды в соседних городах и на ближайших метеорологических станциях:
Партнеры нашего сайта:      
Пояснения к столбцам:
  • Ветер - указаны скорость ветра в м/с - средняя за 10 мин, порывы в срок и между сроками (в фигурных скобках) и направление, откуда дует ветер: С - северный,
  • СВ - северо-восточный, В - восточный, ЮВ - юго-восточный, Ю - южный, ЮЗ - юго-западный, З - западный, СЗ - северо-западный.
  • Видимость - горизонтальная дальность видимости в метрах или километрах. При видимости от 1 до 10 км при отсутствии осадков обычно наблюдается дымка, при ухудшении видимости до 1 км и менее - туман. В сухую погоду видимость может ухудшаться дымом, пылью или мглою.
  • Явления - указаны атмосферные явления, наблюдавшиеся в срок или в последний час перед сроком; фигурными скобками обозначены явления, наблюдавшиеся между сроками (за 1-3 часа до срока); квадратными скобками обозначены град или гололедные отложения с указанием их диаметра в мм.
  • Облачность - указаны через наклонную черту общая и нижняя облачность в баллах и высота нижней границы облаков в метрах; квадратными скобками обозначены формы облаков: Ci - перистые, Cs - перисто-слоистые, Cc - перисто-кучевые, Ac - высококучевые, As - высокослоистые, Sc - слоисто-кучевые, Ns - слоисто-дождевые, Cu - кучевые, Cb - кучево-дождевые. Подробнее классификацию облаков см. в Атласе облаков (PDF).
  • T - Температура воздуха - температура, измеренная на высоте 2 м над землей.
  • Td - Температура точки росы - температура, при понижении до которой содержащийся в воздухе водяной пар достигнет насыщения.
  • f - Относительная влажность воздуха - влажноcть воздуха, измеренная на высоте 2 м над землей.
  • Te - Эффективная температура - температура, которую ощущает одетый по сезону человек в тени. Характеристика душности погоды. При расчете учитывается влияние влажности воздуха и скорости ветра на теплоощущения человека.
  • Tes - Эффективная температура на солнце - температура, которую ощущает человек, с поправкой на солнечный нагрев. Характеристика знойности погоды. Зависит от высоты солнца над горизонтом, облачности и скорости ветра. Ночью, в пасмурную погоду, а также при ветре 12 м/с и более поправка равна нулю.
  • P - Атмосферное давление - приведенное к уровню моря атмосферное давление.
  • Po - Атмосферное давление - измеренное на уровне метеостанции атмосферное давление.
  • Tmin - Минимальная температура - минимум температуры воздуха на высоте 2 м над землей.
  • Tmax - Максимальная температура - максимум температуры воздуха на высоте 2 м над землей.
  • R - Количество осадков - Количество выпавших осадков за период времени, мм. При наведении курсора мыши на число - период времени, за который выпало указанное количество осадков.
  • R24 - Количество осадков - Количество выпавших осадков за 24 часа, мм.
  • S - Снежный покров - Высота снежного покрова, см. При наведении курсора мыши на число - состояние снежного покрова и степень покрытия местности в баллах.